Weather History for KFFL - April, 2014

Change the Weather History Date:

Friday, April 18, 2014

  Actual Average Record
Temperature  
Mean Temperature 45 °F -  
Max Temperature 62 °F 65 °F 88 °F (1985)
Min Temperature 28 °F 43 °F 22 °F (1983)
Degree Days  
Heating Degree Days 20    
Moisture  
Dew Point 30 °F    
Average Humidity 59    
Maximum Humidity 93    
Minimum Humidity 24    
Precipitation  
Precipitation 0.00 in - - ()
Sea Level Pressure  
Sea Level Pressure 30.29 in    
Wind  
Wind Speed 6 mph (ENE)    
Max Wind Speed 10 mph    
Max Gust Speed 16 mph    
Visibility 9 miles    
Events      
Averages and records for this station are not official NWS values.
T = Trace of Precipitation, MM = Missing Value Source: NWS Daily Summary

Daily Weather History Graph

Daily Weather History Graph

Search for Another Location

Airport or City:

Trip Planner

Search our weather history database for the weather conditions in past years. The results will help you decide how hot, cold, wet, or windy it might be!

Date:

Astronomy

Apr. 18, 2014 Rise Set
Actual Time 6:24 AM CDT 7:51 PM CDT
Civil Twilight 5:55 AM CDT 8:19 PM CDT
Nautical Twilight 5:20 AM CDT 8:54 PM CDT
Astronomical Twilight 4:44 AM CDT 9:31 PM CDT
Moon 11:37 PM CDT (4/18) 8:45 AM CDT (4/18)
Length of Visible Light 14h 24m
Length of Day
13h 26m
Waning Gibbous, 87% of the Moon is Illuminated
Apr 18
Waning Gibbous
Apr 22
Last Quarter
Apr 29
New
May 6
First Quarter
May 14
Full

Hourly Weather History & Observations

Time (CDT) Temp. Windchill Dew Point Humidity Pressure Visibility Wind Dir Wind Speed Gust Speed Precip Events Conditions
12:15 AM 35.6 °F 28.6 °F 30.2 °F 81% 30.29 in 10.0 mi North 9.2 mph - N/A   Clear
12:35 AM 35.6 °F 28.0 °F 30.2 °F 81% 30.29 in 10.0 mi NNE 10.4 mph - N/A   Clear
12:55 AM 33.8 °F 26.4 °F 30.2 °F 87% 30.29 in 10.0 mi NNE 9.2 mph - N/A   Clear
1:15 AM 33.8 °F 27.0 °F 28.4 °F 81% 30.29 in 10.0 mi NNE 8.1 mph - N/A   Clear
1:35 AM 32.0 °F 24.8 °F 28.4 °F 87% 30.29 in 10.0 mi NNE 8.1 mph - N/A   Clear
1:55 AM 32.0 °F 24.8 °F 28.4 °F 87% 30.29 in 10.0 mi NNE 8.1 mph - N/A   Clear
2:15 AM 32.0 °F 24.8 °F 28.4 °F 87% 30.29 in 10.0 mi NNE 8.1 mph - N/A   Clear
2:35 AM 32.0 °F 24.8 °F 28.4 °F 87% 30.29 in - NNE 8.1 mph - N/A   Unknown
2:55 AM 32.0 °F 25.6 °F 28.4 °F 87% 30.30 in 10.0 mi NNE 6.9 mph - N/A   Clear
3:15 AM 32.0 °F 25.6 °F 28.4 °F 87% 30.30 in 9.0 mi NE 6.9 mph - N/A   Clear
3:35 AM 32.0 °F 25.6 °F 28.4 °F 87% 30.30 in 10.0 mi NNE 6.9 mph - N/A   Clear
3:55 AM 30.2 °F 23.4 °F 28.4 °F 93% 30.30 in 7.0 mi NNE 6.9 mph - N/A   Clear
4:15 AM 30.2 °F 24.3 °F 28.4 °F 93% 30.31 in 8.0 mi NE 5.8 mph - N/A   Clear
4:35 AM 30.2 °F - 28.4 °F 93% 30.31 in 6.0 mi Calm Calm - N/A   Clear
4:55 AM 30.2 °F 25.4 °F 26.6 °F 86% 30.32 in 7.0 mi NNE 4.6 mph - N/A   Clear
5:15 AM 28.4 °F 23.3 °F 26.6 °F 93% 30.32 in 5.0 mi North 4.6 mph - N/A   Clear
5:35 AM 30.2 °F 26.7 °F 28.4 °F 93% 30.32 in 3.0 mi North 3.5 mph - N/A   Clear
5:55 AM 30.2 °F 26.7 °F 28.4 °F 93% 30.32 in 2.5 mi NNE 3.5 mph - N/A   Clear
6:15 AM 30.2 °F - 28.4 °F 93% 30.33 in 3.0 mi Calm Calm - N/A   Clear
6:35 AM 28.4 °F - 26.6 °F 93% 30.33 in 1.0 mi Calm Calm - N/A   Clear
6:55 AM 28.4 °F - 26.6 °F 93% 30.34 in 1.8 mi Calm Calm - N/A   Clear
7:15 AM 30.2 °F - 28.4 °F 93% 30.35 in 2.0 mi Calm Calm - N/A   Clear
7:35 AM 32.0 °F - 30.2 °F 93% 30.35 in 4.0 mi Calm Calm - N/A   Clear
7:55 AM 33.8 °F 27.7 °F 32.0 °F 93% 30.36 in 4.0 mi NE 6.9 mph - N/A   Clear
8:15 AM 37.4 °F 32.8 °F 32.0 °F 81% 30.36 in 6.0 mi NE 5.8 mph - N/A   Clear
8:35 AM 39.2 °F 35.0 °F 33.8 °F 81% 30.36 in 7.0 mi ENE 5.8 mph - N/A   Clear
8:55 AM 41.0 °F 38.0 °F 33.8 °F 76% 30.36 in 8.0 mi ENE 4.6 mph - N/A   Clear
9:15 AM 42.8 °F - 35.6 °F 76% 30.37 in 9.0 mi Calm Calm - N/A   Clear
9:35 AM 44.6 °F 42.2 °F 33.8 °F 66% 30.36 in 10.0 mi Variable 4.6 mph - N/A   Clear
9:55 AM 46.4 °F - 33.8 °F 62% 30.36 in 10.0 mi Calm Calm - N/A   Clear
10:15 AM 48.2 °F - 33.8 °F 58% 30.36 in 10.0 mi Variable 3.5 mph - N/A   Clear
10:35 AM 50.0 °F - 33.8 °F 54% 30.37 in 10.0 mi Variable 4.6 mph - N/A   Clear
11:15 AM 51.8 °F - 33.8 °F 50% 30.36 in 10.0 mi Variable 3.5 mph - N/A   Clear
11:35 AM 53.6 °F - 32.0 °F 44% 30.36 in 10.0 mi NNE 5.8 mph - N/A   Clear
11:55 AM 53.6 °F - 32.0 °F 44% 30.35 in 10.0 mi Variable 6.9 mph - N/A   Clear
12:15 PM 55.4 °F - 32.0 °F 41% 30.34 in 10.0 mi NE 6.9 mph - N/A   Clear
12:35 PM 55.4 °F - 32.0 °F 41% 30.33 in 10.0 mi NE 8.1 mph - N/A   Clear
12:55 PM 55.4 °F - 30.2 °F 38% 30.33 in 10.0 mi Variable 4.6 mph - N/A   Clear
1:15 PM 57.2 °F - 30.2 °F 36% 30.32 in 10.0 mi ENE 4.6 mph - N/A   Clear
1:35 PM 57.2 °F - 28.4 °F 33% 30.32 in 10.0 mi Calm Calm - N/A   Clear
1:55 PM 59.0 °F - 30.2 °F 34% 30.32 in 10.0 mi Calm Calm - N/A   Clear
2:15 PM 59.0 °F - 28.4 °F 31% 30.31 in 10.0 mi Calm Calm - N/A   Clear
2:35 PM 60.8 °F - 30.2 °F 31% 30.31 in 10.0 mi East 8.1 mph - N/A   Clear
2:55 PM 60.8 °F - 26.6 °F 27% 30.30 in 10.0 mi ESE 9.2 mph - N/A   Clear
3:15 PM 60.8 °F - 26.6 °F 27% 30.28 in 10.0 mi Calm Calm - N/A   Clear
3:35 PM 60.8 °F - 28.4 °F 29% 30.27 in 10.0 mi Variable 5.8 mph 12.7 mph N/A   Clear
3:55 PM 62.6 °F - 28.4 °F 27% 30.27 in 10.0 mi East 8.1 mph 16.1 mph N/A   Clear
4:15 PM 62.6 °F - 26.6 °F 26% 30.26 in 10.0 mi Calm Calm - N/A   Clear
4:35 PM 62.6 °F - 30.2 °F 30% 30.26 in 10.0 mi Calm Calm 12.7 mph N/A   Clear
4:55 PM 62.6 °F - 28.4 °F 27% 30.25 in 10.0 mi SE 4.6 mph 12.7 mph N/A   Clear
5:15 PM 62.6 °F - 30.2 °F 30% 30.25 in 10.0 mi ESE 5.8 mph 13.8 mph N/A   Clear
5:35 PM 62.6 °F - 26.6 °F 26% 30.24 in 10.0 mi SE 10.4 mph - N/A   Clear
5:55 PM 62.6 °F - 24.8 °F 24% 30.24 in 10.0 mi SE 8.1 mph - N/A   Clear
6:15 PM 62.6 °F - 26.6 °F 26% 30.23 in 10.0 mi SE 6.9 mph - N/A   Clear
6:35 PM 62.6 °F - 26.6 °F 26% 30.23 in 10.0 mi SSE 8.1 mph - N/A   Clear
6:55 PM 60.8 °F - 30.2 °F 31% 30.22 in 10.0 mi SE 6.9 mph - N/A   Clear
7:15 PM 60.8 °F - 30.2 °F 31% 30.22 in 10.0 mi ESE 6.9 mph - N/A   Clear
7:35 PM 57.2 °F - 32.0 °F 38% 30.23 in 9.0 mi East 6.9 mph - N/A   Clear
7:55 PM 51.8 °F - 30.2 °F 44% 30.23 in 8.0 mi East 8.1 mph - N/A   Clear
8:15 PM 51.8 °F - 30.2 °F 44% 30.23 in 10.0 mi ESE 6.9 mph - N/A   Clear
8:35 PM 50.0 °F - 30.2 °F 47% 30.23 in 10.0 mi ESE 6.9 mph - N/A   Clear
8:55 PM 48.2 °F - 30.2 °F 50% 30.23 in 10.0 mi ESE 6.9 mph - N/A   Clear
9:15 PM 48.2 °F - 30.2 °F 50% 30.23 in 10.0 mi ESE 6.9 mph - N/A   Clear
9:35 PM 48.2 °F - 30.2 °F 50% 30.23 in 10.0 mi ESE 6.9 mph - N/A   Clear
9:55 PM 48.2 °F - 30.2 °F 50% 30.23 in 10.0 mi SE 9.2 mph - N/A   Clear
10:15 PM 48.2 °F - 28.4 °F 46% 30.24 in 10.0 mi ESE 6.9 mph - N/A   Clear
10:35 PM 46.4 °F 43.5 °F 28.4 °F 50% 30.24 in 10.0 mi ESE 5.8 mph - N/A   Clear
10:55 PM 48.2 °F - 28.4 °F 46% 30.24 in 10.0 mi ESE 8.1 mph - N/A   Clear
11:15 PM 48.2 °F - 28.4 °F 46% 30.24 in 10.0 mi ESE 8.1 mph - N/A   Clear
11:35 PM 46.4 °F 42.4 °F 28.4 °F 50% 30.24 in 10.0 mi ESE 8.1 mph - N/A   Clear
11:55 PM 46.4 °F 42.9 °F 28.4 °F 50% 30.24 in 10.0 mi ESE 6.9 mph - N/A   Clear